Flag for U.S.A. Weather past 2 weeks in Missoula, Montana, U.S.A.

Now
93 °F

Sunny.


Feels Like: 88 °F
Forecast: 52 / 94 °F
Wind: 5 mph from North

Location: Missoula International Airport

Current Time: Jul 31, 2015 at 5:50:32 PM

Latest Report: Jul 31, 2015 at 4:53 PM


Visibility: 10 mi

Pressure: 30.02 "Hg (26.94 "Hg at 971m altitude)

Humidity: 11%

Dew point: 31 °F

Location of MissoulaLocation

Historic Weather in Missoula — Graph

°F

Missoula temperature yesterday

Maximum temperature yesterday: 90 °F (at 5:53 PM)
Minimum temperature yesterday: 49 °F (at 6:53 AM)
Average temperature yesterday: 70 °F

Past Weeks' High & Low Weather Summary

 TemperatureHumidityPressure
High93 °F (Jul 31, 4:53 PM)97% (Jul 28, 3:53 AM)30.32 "Hg (Jul 28, 3:53 AM)
Low47 °F (Jul 27, 3:02 PM)11% (Jul 21, 5:53 PM)29.69 "Hg (Jul 22, 5:53 PM)
Average66 °F48%30.00 "Hg
* Reported Jul 16 4:53 PM — Jul 31 4:53 PM, Missoula, Weather by CustomWeather, © 2015

Note: Actual official high and low records may vary slightly from our data, if they occured in-between our weather recording intervals... More about our weather records

Advertising

Missoula weather history for previous 24 hours

 ConditionsComfort  
Time TempWeatherWind HumidityBarometerVisibility
4:53 PM
Fri, Jul 31
93 °FSunny.5 mph11%30.02 "Hg10 mi
3:53 PM92 °FSunny.5 mph12%30.04 "Hg10 mi
2:53 PM89 °FSunny.3 mph15%30.08 "Hg10 mi
1:53 PM84 °FSunny.3 mph19%30.11 "Hg10 mi
12:53 PM80 °FSunny.5 mph24%30.14 "Hg10 mi
11:53 AM74 °FSunny.No wind32%30.18 "Hg10 mi
10:53 AM69 °FSunny.No wind36%30.21 "Hg10 mi
9:53 AM63 °FSunny.No wind47%30.23 "Hg10 mi
8:53 AM60 °FSunny.No wind52%30.22 "Hg10 mi
7:53 AM56 °FSunny.No wind62%30.22 "Hg10 mi
6:53 AM51 °FClear.No wind69%30.21 "Hg10 mi
5:53 AM52 °FClear.No wind66%30.19 "Hg10 mi
4:53 AM53 °FClear.No wind66%30.18 "Hg10 mi
3:53 AM57 °FClear.No wind55%30.17 "Hg10 mi
2:53 AM55 °FClear.No wind62%30.16 "Hg10 mi
1:53 AM59 °FClear.No wind56%30.15 "Hg10 mi
12:53 AM65 °FClear.No wind42%30.14 "Hg10 mi
11:53 PM
Thu, Jul 30
64 °FClear.No wind45%30.14 "Hg10 mi
10:53 PM67 °FClear.6 mph42%30.18 "Hg10 mi
9:53 PM71 °FSunny.7 mph34%30.11 "Hg10 mi
8:53 PM82 °FSunny.3 mph25%30.09 "Hg10 mi
7:53 PM87 °FSunny.5 mph17%30.07 "Hg10 mi
6:53 PM88 °FSunny.6 mph15%30.09 "Hg10 mi
5:53 PM90 °FSunny.7 mph14%30.10 "Hg10 mi
Weather by CustomWeather, © 2015

See weather overviewHow to use our weather pages